Location: Stoke Bliss
(52.2667°N, 2.5167°W)
Time: 15:17:42
(UTC+00:00)

SPOT 5 - Visible Passes

Search period start: 20 June 2021 00:00
Search period end: 30 June 2021 00:00
Orbit: 623 x 815 km, 98.2° (Epoch: 18 June)

Date Brightness Start Highest point End Pass type
(mag) Time Alt. Az. Time Alt. Az. Time Alt. Az.
20 Jun 4.2 22:28:14 10° SSW 22:32:49 34° W 22:37:13 10° NNW visible
21 Jun 3.0 21:37:20 10° SSE 21:42:23 86° WSW 21:47:11 10° NNW visible
21 Jun 5.3 23:18:27 10° WSW 23:21:06 14° W 23:23:42 10° NW visible
22 Jun 4.1 22:25:47 10° SSW 22:30:21 35° W 22:34:44 10° NNW visible
23 Jun 2.9 21:34:57 10° SSE 21:39:55 90° SSW 21:44:41 10° NNW visible
23 Jun 5.2 23:15:53 10° WSW 23:18:37 15° W 23:21:18 10° NW visible
24 Jun 4.0 22:23:19 10° SSW 22:27:53 36° W 22:32:15 10° NNW visible
25 Jun 2.9 21:32:32 10° SSE 21:37:28 87° ENE 21:42:10 10° NNW visible
25 Jun 5.2 23:13:20 10° WSW 23:16:08 15° W 23:18:52 10° NW visible
26 Jun 4.0 22:20:52 10° SSW 22:25:24 38° W 22:29:46 10° NNW visible
27 Jun 2.8 21:30:08 10° SSE 21:35:00 83° ENE 21:39:38 10° NNW visible
27 Jun 5.1 23:10:46 10° SW 23:13:38 16° W 23:16:26 10° NW visible
28 Jun 3.9 22:18:24 10° SSW 22:22:56 39° W 22:27:16 10° NNW visible
29 Jun 2.8 21:27:44 10° SSE 21:32:32 79° ENE 21:37:07 10° NNW visible
29 Jun 5.1 23:08:13 10° SW 23:11:08 16° W 23:14:00 10° NW visible
